Volver al catálogo

KUIPER-00620

ActivoComunicacionesLEO
NORAD 69295·PAYLOAD·🇺🇸 United States

Lanzado May 29, 2026 desde Vandenberg Space Force Base

Loading…

Próximos Pases (próximas 24 horas)

TLE

ActualizadoSource: CelesTrak SupGP

Época: Sep 14, 2026, 18:26 UTC

1 69295C 26118AE  26257.76850694  .00007515  00000+0  98403-3 0  2577
2 69295  51.9041 357.0500 0000388  91.1655 140.4293 14.79912196    12

Sigue KUIPER-00620 en tiempo real con AllMySat

Download on the App Store